Tehachapi, CA

5:10 PM PDT on July 20, 2017 (GMT -0700)
Tehachapi Municipal

Weather History for KTSP - April, 2013

Change the Weather History Date:

Monday, April 15, 2013

  Actual Average Record
Temperature  
Mean Temperature 45 °F -  
Max Temperature 53 °F 64 °F 71 °F (2017)
Min Temperature 37 °F 37 °F 26 °F (2015)
Degree Days  
Heating Degree Days 20    
Moisture  
Dew Point 34 °F    
Average Humidity 65    
Maximum Humidity 93    
Minimum Humidity 37    
Precipitation  
Precipitation 0.00 in - - ()
Sea Level Pressure  
Sea Level Pressure 29.79 in    
Wind  
Wind Speed 26 mph (WNW)    
Max Wind Speed 38 mph    
Max Gust Speed 52 mph    
Visibility 10 miles    
Events      
Averages and records for this station are not official NWS values.
T = Trace of Precipitation, MM = Missing Value Source: NWS Daily Summary

Daily Weather History Graph

Daily Weather History Graph

Search for Another Location

Airport or City:

Trip Planner

Search our weather history database for the weather conditions in past years. The results will help you decide how hot, cold, wet, or windy it might be!

Date:

Astronomy

Apr. 15, 2013 Rise Set
Actual Time 6:21 AM PDT 7:26 PM PDT
Civil Twilight 5:55 AM PDT 7:52 PM PDT
Nautical Twilight 5:24 AM PDT 8:24 PM PDT
Astronomical Twilight 4:51 AM PDT 8:56 PM PDT
Moon 9:57 AM PDT (4/15) No Moon Set
Length of Visible Light 13h 57m
Length of Day
13h 05m
Waxing Crescent, 25% of the Moon is Illuminated
Apr 15
Waxing Crescent
Apr 18
First Quarter
Apr 25
Full
May 2
Last Quarter
May 9
New

Hourly Weather History & Observations

Time (PDT) Temp. Windchill Dew Point Humidity Pressure Visibility Wind Dir Wind Speed Gust Speed Precip Events Conditions
12:15 AM 50.0 °F - 24.8 °F 37% 29.76 in 10.0 mi WNW 35.7 mph 51.8 mph N/A   Clear
12:35 AM 50.0 °F - 26.6 °F 40% 29.76 in 10.0 mi WNW 38.0 mph 49.5 mph N/A   Clear
12:55 AM 48.2 °F - 30.2 °F 50% 29.77 in 10.0 mi WNW 36.8 mph 47.2 mph N/A   Clear
1:15 AM 48.2 °F - 30.2 °F 50% 29.77 in 10.0 mi WNW 29.9 mph 43.7 mph N/A   Clear
1:35 AM 48.2 °F - 32.0 °F 54% 29.76 in 10.0 mi WNW 35.7 mph 44.9 mph N/A   Clear
1:55 AM 48.2 °F - 32.0 °F 54% 29.77 in 10.0 mi WNW 27.6 mph 42.6 mph N/A   Clear
2:15 AM 46.4 °F 37.5 °F 32.0 °F 57% 29.77 in 10.0 mi WNW 27.6 mph 39.1 mph N/A   Clear
2:35 AM 46.4 °F 37.9 °F 33.8 °F 62% 29.77 in 10.0 mi WNW 25.3 mph 41.4 mph N/A   Clear
2:55 AM 46.4 °F 37.9 °F 35.6 °F 66% 29.77 in 10.0 mi WNW 25.3 mph 36.8 mph N/A   Clear
3:15 AM 46.4 °F 39.5 °F 35.6 °F 66% 29.77 in 10.0 mi NW 17.3 mph 31.1 mph N/A   Clear
3:35 AM 44.6 °F 36.6 °F 35.6 °F 71% 29.78 in 10.0 mi NW 19.6 mph 26.5 mph N/A   Scattered Clouds
3:55 AM 42.8 °F 34.5 °F 35.6 °F 76% 29.78 in 10.0 mi NW 18.4 mph 27.6 mph N/A   Mostly Cloudy
4:15 AM 42.8 °F 35.1 °F 35.6 °F 76% 29.79 in 10.0 mi NW 16.1 mph 27.6 mph N/A   Mostly Cloudy
4:35 AM 42.8 °F 34.5 °F 37.4 °F 81% 29.79 in 10.0 mi NW 18.4 mph 24.2 mph N/A   Overcast
4:55 AM 41.0 °F 33.5 °F 37.4 °F 87% 29.79 in 10.0 mi WNW 13.8 mph 23.0 mph N/A   Overcast
5:15 AM 41.0 °F 32.5 °F 37.4 °F 87% 29.79 in 10.0 mi WNW 17.3 mph 23.0 mph N/A   Overcast
5:35 AM 41.0 °F 33.9 °F 37.4 °F 87% 29.79 in 10.0 mi WNW 12.7 mph 19.6 mph N/A   Overcast
5:55 AM 41.0 °F 33.5 °F 37.4 °F 87% 29.80 in 10.0 mi WNW 13.8 mph - N/A   Overcast
6:15 AM 41.0 °F 32.5 °F 37.4 °F 87% 29.80 in 10.0 mi WNW 17.3 mph 23.0 mph N/A   Overcast
6:35 AM 41.0 °F 31.9 °F 37.4 °F 87% 29.80 in 10.0 mi NW 19.6 mph 25.3 mph N/A   Overcast
6:55 AM 41.0 °F 31.6 °F 37.4 °F 87% 29.80 in 10.0 mi NW 20.7 mph 28.8 mph N/A   Overcast
7:15 AM 41.0 °F 31.6 °F 37.4 °F 87% 29.80 in 10.0 mi WNW 20.7 mph 27.6 mph N/A   Overcast
7:35 AM 41.0 °F 31.9 °F 37.4 °F 87% 29.81 in 10.0 mi WNW 19.6 mph 25.3 mph N/A   Overcast
7:55 AM 41.0 °F 31.6 °F 39.2 °F 93% 29.82 in 10.0 mi WNW 20.7 mph 26.5 mph N/A   Overcast
8:15 AM 41.0 °F 32.2 °F 39.2 °F 93% 29.82 in 10.0 mi NW 18.4 mph 26.5 mph N/A   Overcast
8:35 AM 41.0 °F 32.5 °F 37.4 °F 87% 29.82 in 10.0 mi WNW 17.3 mph 25.3 mph N/A   Overcast
8:55 AM 41.0 °F 32.5 °F 37.4 °F 87% 29.83 in 10.0 mi WNW 17.3 mph 24.2 mph N/A   Overcast
9:15 AM 42.8 °F 33.1 °F 37.4 °F 81% 29.82 in 10.0 mi NW 25.3 mph 29.9 mph N/A   Overcast
9:35 AM 41.0 °F 31.1 °F 37.4 °F 87% 29.83 in 10.0 mi NW 23.0 mph 28.8 mph N/A   Overcast
9:55 AM 42.8 °F 33.8 °F 39.2 °F 87% 29.83 in 10.0 mi NW 21.9 mph 29.9 mph N/A   Mostly Cloudy
10:15 AM 42.8 °F 33.5 °F 39.2 °F 87% 29.83 in 10.0 mi NW 23.0 mph 31.1 mph N/A   Overcast
10:35 AM 42.8 °F 34.3 °F 39.2 °F 87% 29.84 in 10.0 mi NW 19.6 mph 27.6 mph N/A   Overcast
10:55 AM 41.0 °F 31.6 °F 39.2 °F 93% 29.84 in 10.0 mi NW 20.7 mph 27.6 mph N/A   Overcast
11:15 AM 44.6 °F 36.4 °F 39.2 °F 81% 29.85 in 10.0 mi NW 20.7 mph 28.8 mph N/A   Overcast
11:35 AM 44.6 °F 36.6 °F 39.2 °F 81% 29.84 in 10.0 mi WNW 19.6 mph 27.6 mph N/A   Overcast
11:55 AM 46.4 °F 39.0 °F 39.2 °F 76% 29.84 in 10.0 mi NW 19.6 mph 26.5 mph N/A   Overcast
12:15 PM 48.2 °F - 39.2 °F 71% 29.85 in 10.0 mi NW 24.2 mph 31.1 mph N/A   Mostly Cloudy
12:35 PM 48.2 °F - 37.4 °F 66% 29.85 in 10.0 mi NW 24.2 mph 32.2 mph N/A   Overcast
12:55 PM 46.4 °F 38.5 °F 37.4 °F 71% 29.85 in 10.0 mi WNW 21.9 mph 28.8 mph N/A   Overcast
1:15 PM 48.2 °F - 35.6 °F 62% 29.85 in 10.0 mi WNW 19.6 mph 28.8 mph N/A   Overcast
1:35 PM 48.2 °F - 35.6 °F 62% 29.84 in 10.0 mi NW 19.6 mph 32.2 mph N/A   Overcast
1:55 PM 50.0 °F - 35.6 °F 58% 29.83 in 10.0 mi NW 25.3 mph 34.5 mph N/A   Mostly Cloudy
2:15 PM 51.8 °F - 35.6 °F 54% 29.82 in 10.0 mi NW 24.2 mph 32.2 mph N/A   Mostly Cloudy
2:35 PM 53.6 °F - 33.8 °F 47% 29.81 in 10.0 mi NW 26.5 mph 32.2 mph N/A   Partly Cloudy
2:55 PM 53.6 °F - 33.8 °F 47% 29.81 in 10.0 mi WNW 20.7 mph 33.4 mph N/A   Partly Cloudy
3:15 PM 53.6 °F - 32.0 °F 44% 29.79 in 10.0 mi NW 24.2 mph 33.4 mph N/A   Clear
3:35 PM 53.6 °F - 32.0 °F 44% 29.79 in 10.0 mi WNW 20.7 mph 34.5 mph N/A   Clear
3:55 PM 53.6 °F - 32.0 °F 44% 29.78 in 10.0 mi NW 23.0 mph 33.4 mph N/A   Clear
4:15 PM 53.6 °F - 32.0 °F 44% 29.77 in 10.0 mi WNW 24.2 mph 34.5 mph N/A   Clear
4:35 PM 53.6 °F - 32.0 °F 44% 29.76 in 10.0 mi WNW 31.1 mph 38.0 mph N/A   Clear
4:55 PM 53.6 °F - 32.0 °F 44% 29.76 in 10.0 mi WNW 25.3 mph 36.8 mph N/A   Clear
5:15 PM 53.6 °F - 32.0 °F 44% 29.76 in 10.0 mi WNW 26.5 mph 38.0 mph N/A   Clear
5:35 PM 53.6 °F - 32.0 °F 44% 29.76 in 10.0 mi WNW 26.5 mph 41.4 mph N/A   Clear
5:55 PM 51.8 °F - 32.0 °F 47% 29.75 in 10.0 mi WNW 27.6 mph 35.7 mph N/A   Clear
6:15 PM 50.0 °F - 32.0 °F 50% 29.75 in 10.0 mi WNW 28.8 mph 38.0 mph N/A   Clear
6:35 PM 50.0 °F - 32.0 °F 50% 29.75 in 10.0 mi WNW 28.8 mph 38.0 mph N/A   Clear
6:55 PM 50.0 °F - 28.4 °F 43% 29.75 in 10.0 mi WNW 29.9 mph 40.3 mph N/A   Clear
7:15 PM 48.2 °F - 28.4 °F 46% 29.74 in 10.0 mi NW 27.6 mph 35.7 mph N/A   Clear
7:35 PM 48.2 °F - 26.6 °F 43% 29.74 in 10.0 mi WNW 26.5 mph 36.8 mph N/A   Clear
7:55 PM 48.2 °F - 28.4 °F 46% 29.74 in 10.0 mi WNW 24.2 mph 34.5 mph N/A   Clear
8:15 PM 46.4 °F 37.9 °F 28.4 °F 50% 29.75 in 10.0 mi WNW 25.3 mph 35.7 mph N/A   Clear
8:35 PM 46.4 °F 37.0 °F 26.6 °F 46% 29.75 in 10.0 mi WNW 31.1 mph 36.8 mph N/A   Clear
8:55 PM 46.4 °F 37.7 °F 28.4 °F 50% 29.76 in 10.0 mi WNW 26.5 mph 35.7 mph N/A   Clear
9:15 PM 46.4 °F 37.0 °F 28.4 °F 50% 29.76 in 10.0 mi WNW 31.1 mph 36.8 mph N/A   Partly Cloudy
9:35 PM 46.4 °F 36.9 °F 30.2 °F 53% 29.77 in 10.0 mi WNW 32.2 mph 41.4 mph N/A   Partly Cloudy
9:55 PM 44.6 °F 34.6 °F 30.2 °F 57% 29.77 in 10.0 mi WNW 31.1 mph 42.6 mph N/A   Clear
10:15 PM 44.6 °F 34.7 °F 30.2 °F 57% 29.76 in 10.0 mi WNW 29.9 mph 44.9 mph N/A   Clear
10:35 PM - - - N/A% - - North - - N/A   Unknown
10:55 PM - - - N/A% - - North - - N/A   Unknown
11:15 PM 37.4 °F 24.8 °F 28.4 °F 70% 29.76 in 5.0 mi WNW 31.1 mph 42.6 mph N/A   Haze
11:35 PM 37.4 °F 25.6 °F 28.4 °F 70% 29.77 in 7.0 mi WNW 26.5 mph 41.4 mph N/A   Clear
11:55 PM 37.4 °F 24.2 °F 28.4 °F 70% 29.78 in 9.0 mi WNW 34.5 mph 44.9 mph N/A   Partly Cloudy